Tracking 19242 objects as of 19-Sep-2018
HD Live streaming from Space Station
objects crossing your sky now

NIMBUS 2 DEB

Track NIMBUS 2 DEB now!
10-day predictions


NORAD ID: 28204
Int'l Code: 1966-040S
Perigee: 1,015.3 km
Apogee: 1,078.0 km
Inclination: 100.2 °
Period: 106.0 minutes
Semi major axis: 7417 km
RCS: 0.0132 m2 (small)
Launch date: May 15, 1966
Source: United States (US)
Launch site: AIR FORCE WESTERN TEST RANGE (AFWTR)

Note: This is SATELLITE DEBRIS
aabbcc
Your satellite tracking list
Your tracking list is empty




NASA's NSSDC Master Catalog

Two Line Element Set (TLE):
1 28204U 66040S   18261.84653359  .00001261  00000-0  17745-2 0  9999
2 28204 100.1914  24.7165 0042259 259.0049 256.7233 13.58941113761592
Source of the keplerian elements: AFSPC